RadFxSat 1 00000U 17017A 17322.46018518 -.00000000 00000-0 00000-0 0 9995 2 00000 97.6969 254.4977 0258300 235.3028 178.8186 14.79656332 -137 AO-07 1 07530U 74089B 17320.81911027 -.00000034 00000-0 62593-4 0 9992 2 07530 101.6541 286.6144 0012366 27.4802 30.5153 12.53629887967984 UO-11 1 14781U 84021B 17320.73017162 .00000135 00000-0 22867-4 0 9994 2 14781 97.6788 0.6684 0009819 64.7806 295.4425 14.82955424812950 LO-19 1 20442U 90005G 17320.44341011 .00000026 00000-0 25508-4 0 9999 2 20442 098.5883 255.4864 0012801 060.7569 299.4893 14.32877900453360 HUBBLE 1 20580U 90037B 17320.61223678 .00000690 00000-0 31518-4 0 9999 2 20580 028.4699 080.2229 0002821 017.0966 061.3794 15.08919913313249 MET-2/21 1 22782U 93055A 17320.37922723 .00000057 00000-0 38229-4 0 9991 2 22782 082.5492 262.7950 0022658 007.6198 105.4050 13.83804700222474 AO-27 1 22825U 93061C 17320.51622125 .00000013 00000-0 22884-4 0 9997 2 22825 098.8338 288.1259 0007415 244.4407 115.6009 14.30013444258907 IO-26 1 22826U 93061D 17320.51223651 .00000016 00000-0 23699-4 0 9997 2 22826 098.8279 288.1858 0008015 233.5565 126.4878 14.30343530259107 FO-29 1 24278U 96046B 17320.48992769 -.00000029 00000-0 90944-5 0 9998 2 24278 098.5371 183.3034 0349544 302.7605 054.0298 13.53080504049226 NOAA-15 1 25338U 98030A 17320.56510152 .00000043 00000-0 37092-4 0 9991 2 25338 098.7791 331.7612 0011445 121.7889 238.4407 14.25825981014466 GO-32 1 25397U 98043D 17320.42768827 -.00000010 00000-0 14686-4 0 9998 2 25397 098.6257 259.6537 0000297 328.6580 031.4581 14.23633694005235 ISS 1 25544U 98067A 17320.95529921 .00003296 00000-0 56951-4 0 9995 2 25544 51.6424 356.7492 0004424 122.0097 302.8501 15.54159924 85518 NO-44 1 26931U 01043C 17320.66838595 -.00000037 00000-0 17654-4 0 9990 2 26931 67.0527 57.7663 0005315 262.8439 97.2058 14.30483141842152 SO-50 1 27607U 02058C 17320.58434974 .00000080 00000-0 32149-4 0 9995 2 27607 064.5567 019.8420 0039121 026.0943 334.2119 14.75390583801468 CO-55 1 27844U 03031E 17320.82764228 .00000089 00000-0 60136-4 0 9991 2 27844 98.6894 327.6134 0008723 265.6453 94.3728 14.22075198746018 CO-57 1 27848U 03031J 17320.58747497 .00000072 00000-0 52589-4 0 9992 2 27848 098.6986 327.6981 0008620 277.4479 082.5718 14.21684788745825 RS-22 1 27939U 03042A 17320.87624823 .00000151 00000-0 35594-4 0 9999 2 27939 97.9610 100.9065 0014308 101.2620 14.4920 14.66628737755695 NOAA-18 1 28654U 05018A 17320.57983519 .00000050 00000-0 52453-4 0 9997 2 28654 099.1709 346.4354 0014350 008.2628 351.8777 14.12357124643674 CO-58 1 28895U 05043F 17320.37308622 .00000222 00000-0 51530-4 0 9992 2 28895 97.8816 115.8250 0017338 26.6316 333.5774 14.63471785642742 Falconsat-3 1 30776U 07006E 17319.99582903 .00004092 00000-0 12512-3 0 9991 2 30776 035.4351 182.8357 0004274 267.5553 092.4684 15.33403435591560 CO-65 1 32785U 08021C 17320.56074276 .00000400 00000-0 49194-4 0 9991 2 32785 097.5576 337.8078 0013783 029.6054 330.5941 14.88004918517483 AAUSAT2 1 32788U 08021F 17320.74084923 .00000557 00000-0 57144-4 0 9991 2 32788 97.5443 350.8709 0011446 347.5784 12.5153 14.94106574518459 DO-64 1 32789U 08021G 17320.73147746 .00001696 00000-0 12215-3 0 9998 2 32789 97.5417 15.6512 0011237 306.4325 53.5865 15.05476390519817 CO-66 1 32791U 08021J 17320.59001727 .00000520 00000-0 58810-4 0 9990 2 32791 097.5519 342.6556 0013654 013.0761 347.0809 14.90387432517766 RS-30 1 32953U 08025A 17320.47979077 .00000026 00000-0 11983-3 0 9993 2 32953 082.4997 144.9681 0018708 314.9330 045.0231 12.43079984430349 PRISM 1 33493U 09002B 17320.88560012 .00000180 00000-0 21759-4 0 9993 2 33493 98.1473 209.6006 0014645 303.4263 56.5568 14.95939962478607 NOAA-19 1 33591U 09005A 17320.59704970 .00000073 00000-0 64557-4 0 9990 2 33591 099.1138 289.7386 0013540 200.5117 159.5512 14.12229166451907 TISAT-1 1 36799U 10035E 17320.60413794 .00000620 00000-0 69342-4 0 9996 2 36799 098.0803 086.6075 0012438 180.5863 179.5341 14.90599258398287 JUGNU 1 37839U 11058B 17320.09814321 .00000332 00000-0 35538-4 0 9992 2 37839 19.9609 249.3655 0019041 58.4838 55.9639 14.12601180315203 SRMSAT 1 37841U 11058D 17320.23741692 .00000331 00000-0 36710-4 0 9993 2 37841 019.9727 293.3343 0011676 312.0922 166.6153 14.10591236314689 AO-71 1 37854U 11061E 17320.82577174 .00004294 00000-0 23191-3 0 9998 2 37854 101.6995 272.0834 0165801 342.9809 16.5880 15.04768366329886 HRBE 1 37855U 11061F 17320.54154363 .00004770 00000-0 25189-3 0 9997 2 37855 101.7117 269.3562 0178951 351.2740 008.5372 15.03724945329216 ALMASAT-1 1 38078U 12006B 17320.75342636 .00025023 37396-5 26255-3 0 9992 2 38078 69.4344 79.7301 0278315 64.6455 298.3308 15.29681120308055 HORYU-2 1 38340U 12025D 17320.47760000 .00000319 00000-0 55019-4 0 9992 2 38340 098.3769 329.7839 0011968 162.1696 197.9934 14.75444990285339 RS-40 1 38735U 12041C 17320.46826116 .00000009 00000-0 -72231-5 0 9991 2 38735 082.4783 229.2281 0017871 057.2813 302.9987 12.42575094240582 BEESAT-3 1 39134U 13015E 17320.59109035 .00003118 00000-0 15835-3 0 9993 2 39134 064.8638 094.2861 0032056 241.4354 118.3545 15.18472487252234 BEESAT-2 1 39136U 13015G 17320.76292224 .00001887 00000-0 10790-3 0 9993 2 39136 64.8691 106.6219 0033070 260.4794 99.2594 15.15614495252398 ZACUBE-1 1 39417U 13066B 17320.06776732 .00000368 00000-0 52736-4 0 9995 2 39417 97.6127 354.8107 0060395 132.1733 228.4632 14.80818768215252 TRITON-1 1 39427U 13066M 17320.58198338 .00000291 00000-0 54670-4 0 9997 2 39427 097.6365 325.7191 0113270 220.0206 139.2614 14.67561670213204 GOMX-1 1 39430U 13066Q 17320.63713031 .00000313 00000-0 66330-4 0 9991 2 39430 97.6758 308.1373 0150392 281.7662 76.6702 14.58973032212151 LO-74 1 39440U 13066AA 17320.28647955 .00000341 00000-0 54524-4 0 9997 2 39440 097.6165 343.0376 0081070 165.8676 194.4830 14.75557257213325 AO-73 1 39444U 13066AE 17320.64670238 .00000458 00000-0 63028-4 0 9999 2 39444 97.6141 356.6113 0059649 126.5977 234.0745 14.81574574214186 SPROUT 1 39770U 14029E 17320.84448029 .00000794 00000-0 95804-4 0 9994 2 39770 97.8759 58.7737 0008884 177.4548 182.6731 14.86524796188810 DUCHIFAT-1 1 40021U 14033M 17320.40782453 .00000627 00000-0 70649-4 0 9999 2 40021 097.9147 233.7554 0013409 153.9488 206.2407 14.90095845185268 NANOSATCBR1 1 40024U 14033Q 17320.41285797 .00000540 00000-0 62731-4 0 9999 2 40024 097.9097 232.3988 0012709 155.1598 205.0234 14.89391207184688 EO-79 1 40025U 14033R 17320.74385097 .00000475 00000-0 56984-4 0 9990 2 40025 97.9070 231.5360 0012889 157.6292 202.5489 14.88566441185185 DTUSAT-2 1 40030U 14033W 17320.72075364 .00000474 00000-0 57396-4 0 9994 2 40030 97.9028 230.4638 0012447 152.4510 207.7368 14.88181647185135 EO-80 1 40032U 14033Y 17320.76959885 .00000492 00000-0 59446-4 0 9997 2 40032 97.9036 230.5174 0012388 152.7224 207.4646 14.88117791185136 ANTELSAT 1 40034U 14033AA 17320.57356149 .00000347 00000-0 59248-4 0 9991 2 40034 097.8369 199.6021 0059229 161.3979 198.9413 14.73804865182839 VELOX-1 1 40057U 14034E 17320.70647209 .00000474 00000-0 74494-4 0 9993 2 40057 98.1945 63.2804 0009607 291.1620 68.8564 14.77269633182275 DAURIA DX 1 1 40071U 14037C 17320.81799064 .00000210 00000-0 34513-4 0 9997 2 40071 98.3513 78.0790 0007192 287.1660 72.8765 14.81088066181561 UKUBE-1 1 40074U 14037F 17320.72075299 .00000443 00000-0 60758-4 0 9995 2 40074 98.3617 82.6459 0003260 283.9654 76.1208 14.83648863181794 HODOYOSHI-1 1 40299U 14070B 17320.74973971 .00000887 00000-0 41160-4 0 9995 2 40299 97.3949 41.1278 0011335 279.3609 195.6977 15.22587422168152 CHUBUSAT-1 1 40300U 14070C 17320.85282757 .00000948 00000-0 45444-4 0 9992 2 40300 97.3852 37.8933 0018832 289.4837 181.9935 15.21220839167990 QSAT-EOS 1 40301U 14070D 17320.78234171 .00002109 00000-0 89407-4 0 9990 2 40301 97.3795 38.3288 0025481 282.0965 229.7559 15.23971668168062 FIREBIRD FU3 1 40377U 15003B 17320.50199478 .00003827 00000-0 16218-3 0 9997 2 40377 099.1108 174.8998 0133049 217.0640 142.1344 15.16289303154071 FIREBIRD FU4 1 40378U 15003C 17320.82238616 .00004524 00000-0 19053-3 0 9996 2 40378 99.1109 175.3313 0133267 215.8886 143.3336 15.16306674154132 GRIFEX 1 40379U 15003D 17320.79783701 .00003468 00000-0 15642-3 0 9999 2 40379 99.1144 172.4284 0139525 225.5906 133.3832 15.13645757153966 NO-84 1 40654U 15025D 17320.37228092 .00011102 00000-0 19812-3 0 01438 2 40654 054.9963 275.0468 0166093 289.8492 068.4698 15.36864334023083 NO-83 1 40655U 15025E 17320.31020231 .00023348 00000-0 30753-3 0 01621 2 40655 054.9803 239.6530 0127408 311.6068 047.4242 15.49270413023202 DEORBITSAIL 1 40719U 15032E 17320.57133398 .00000701 00000-0 10844-3 0 9992 2 40719 097.9633 212.2835 0017108 017.0384 343.1397 14.76237244126800 NUDT-PHONESAT 1 40900U 15049B 17320.78947529 .00003844 00000-0 17941-3 0 9990 2 40900 97.4428 326.6365 0015247 56.6021 303.6670 15.20339083119638 XW-2A 1 40903U 15049E 17320.77585239 .00003513 00000-0 91016-4 0 9997 2 40903 97.4088 348.3309 0016334 78.0595 282.2480 15.39603385121110 XW-2C 1 40906U 15049H 17320.77968795 .00001179 00000-0 66724-4 0 9996 2 40906 97.4573 323.2707 0016451 50.1670 310.1007 15.14863105119339 XW-2D 1 40907U 15049J 17320.81774962 .00001274 00000-0 71614-4 0 9993 2 40907 97.4544 323.0366 0015790 48.3726 311.8855 15.14989967119348 LILACSAT-2 1 40908U 15049K 17320.77618737 .00000682 00000-0 41815-4 0 9998 2 40908 97.4650 322.6153 0017346 47.8292 312.4409 15.13315470119249 XW-2F 1 40910U 15049M 17320.79087191 .00001855 00000-0 99685-4 0 9998 2 40910 97.4557 323.9463 0016505 45.4034 314.8542 15.16023789119268 XW-2B 1 40911U 15049N 17320.82800394 .00001246 00000-0 70200-4 0 9997 2 40911 97.4584 323.4968 0015699 48.8102 311.4481 15.14943312119244 DCBB 1 40912U 15049P 17320.70725881 .00001541 00000-0 78518-4 0 9990 2 40912 97.4521 326.1348 0016838 36.8460 82.9189 15.18177566119427 TW-1C 1 40926U 15051B 17320.82962042 .00009305 00000-0 19488-3 0 9999 2 40926 97.2135 359.3239 0010319 345.2086 101.2712 15.45592791120472 TW-1A 1 40928U 15051D 17320.85787007 .00003082 00000-0 86053-4 0 9999 2 40928 97.2117 353.9103 0012943 17.2898 93.6375 15.37396589120147 IO-86 1 40931U 15052B 17320.02107006 .00000537 00000-0 -14269-4 0 9991 2 40931 5.9984 230.1140 0012790 234.3992 125.5229 14.76552755115444 GomX-3 1 40949U 98067HA 16292.18357804 .08527750 12374-4 77882-3 0 9992 2 40949 51.6055 106.7696 0006699 286.1344 73.8944 16.38002265 59645 LQSat 1 40958U 15057A 17320.75191702 .00000057 00000-0 16592-4 0 9998 2 40958 97.9646 33.2966 0016979 300.5866 59.3655 14.73000387113571 AO-85 1 40967U 15058D 17320.46725556 .00000184 00000-0 39608-4 0 01511 2 40967 064.7753 116.9052 0183005 022.9553 337.9586 14.75571319022263 ATHENOXAT-1 1 41168U 15077C 17320.36994167 .00002301 00000-0 91102-4 0 9991 2 41168 14.9845 137.2432 0012271 325.7729 254.2669 15.12182998106101 ChubuSat-2 1 41338U 16012B 17320.09480647 .00000519 00000-0 34028-4 0 9996 2 41338 031.0028 227.4072 0013824 123.8653 236.3299 14.99867436095819 ChubuSat-3 1 41339U 16012C 17320.13571355 .00000436 00000-0 27346-4 0 9992 2 41339 31.0090 226.0544 0013682 131.6163 228.5646 15.00063001 95800 Horyu-4 1 41340U 16012D 17320.10631537 .00000769 00000-0 52384-4 0 9999 2 41340 031.0046 222.6567 0014118 141.0174 219.1481 15.00799651095857 OUFTI-1 1 41458U 16025C 17320.85041176 .00001701 00000-0 92860-4 0 9999 2 41458 98.1686 7.1077 0173541 138.6590 222.7920 15.03923247 85516 [email protected] 1 41459U 16025D 17320.82325671 .00002346 00000-0 12700-3 0 9992 2 41459 98.1663 6.9904 0173874 139.5062 221.9264 15.03699761 85503 AAUSAT4 1 41460U 16025E 17320.85208779 .00002506 00000-0 13435-3 0 9990 2 41460 98.1631 7.2423 0166426 136.6701 224.7753 15.04866447 85549 NODES 1 1 41477U 98067HX 17262.38431888 .17021661 12538-4 46079-3 0 9990 2 41477 51.6074 225.8859 0003017 249.6794 110.5489 16.45625800 77086 NODES 2 1 41478U 98067HY 17266.27255257 .13534231 12598-4 22876-3 0 9990 2 41478 51.6086 206.1528 0005980 262.1280 97.9071 16.47641774 77698 LO-87 1 41557U 16033B 17320.79734067 .00002772 00000-0 10496-3 0 9992 2 41557 97.4541 40.2835 0013992 182.0015 178.1171 15.27701449 81721 NuSat2 1 41558U 16033C 17320.85913175 .00004073 00000-0 15373-3 0 9994 2 41558 97.4552 40.4140 0013372 180.3846 245.3958 15.27530781 81729 Lapan A3 1 41603U 16040E 17320.77632884 .00000267 00000-0 15811-4 0 9998 2 41603 97.4433 20.7819 0011748 262.8927 236.7884 15.19462307 77820 Swayam 1 41607U 16040J 17320.42057006 .00002847 00000-0 12941-3 0 9997 2 41607 097.4436 021.1092 0012451 263.0321 096.9499 15.21506450077748 Pratham 1 41783U 16059A 17320.83006902 .00000123 00000-0 33294-4 0 9996 2 41783 98.1491 20.4750 0034457 43.9537 316.4396 14.62879089 60911 AlSat 1N 1 41789U 16059G 17320.76026717 .00000128 00000-0 33470-4 0 9991 2 41789 98.1493 21.2048 0029341 38.0347 322.2916 14.64100173 60936 ScatSat 1 41790U 16059H 17320.76245208 .00000050 00000-0 23906-4 0 9998 2 41790 98.2917 7.0502 0018906 26.7265 333.4900 14.50848716 60388 TY-1 1 41844U 16066D 17320.85163403 .00001661 00000-0 74277-4 0 9998 2 41844 97.4066 325.7550 0017719 64.8103 55.1907 15.22585656 56563 CAS-2T 1 41845U 16066E 17320.87051504 .00000142 00000-0 31554-4 0 9993 2 41845 98.7703 340.1088 0367180 154.8800 207.0760 14.37827089 53439 Pegasus-1 1 41846U 16066F 17320.58059107 .00000505 00000-0 86806-4 0 9992 2 41846 098.7733 339.4876 0369298 157.5731 204.2081 14.37184676053369 STARS-C 1 41895U 98067KR 17320.38833158 .00094292 00000-0 59051-3 0 9998 2 41895 051.6351 340.2750 0003339 071.7524 288.3839 15.76030344051858 Tancredo 1 1 41931U 98067KT 17290.98270503 .14164078 12479-4 76733-3 0 9998 2 41931 51.6104 115.9004 0006182 280.1451 79.8879 16.42240901 42996 TO-89 1 41932U 98067KU 17320.37869652 .00028297 00000-0 28354-3 0 9991 2 41932 051.6395 347.8191 0004826 096.1806 263.9740 15.65293333047320 AOBA-V3LOX3 1 41935U 98067KX 17320.56536923 .00034276 00000-0 32715-3 0 9997 2 41935 051.6387 346.0520 0004235 094.8298 265.3181 15.66411191047460 OSNSAT 1 41939U 98067KZ 17320.30959732 .00161745 00000-0 72998-3 0 9999 2 41939 051.6338 335.9552 0006801 071.5608 288.6134 15.82983526046830 EO-88 1 42017U 17008BX 17320.43996769 .00002881 00000-0 12291-3 0 9993 2 42017 097.4782 021.5107 0007797 056.7319 303.4664 15.23707078041663 HAVELSAT 1 42700U 98067LH 17320.59305083 .00026496 00000-0 30744-3 0 9997 2 42700 051.6391 353.7261 0004065 160.0531 200.0622 15.61579407028702 SOMP2 1 42701U 98067LJ 17320.49282888 .00026525 00000-0 31338-3 0 9997 2 42701 051.6390 354.5586 0004083 159.6054 200.5103 15.61108271028677 Columbia 1 42702U 98067LK 17320.56716246 .00091536 00000-0 71495-3 0 9998 2 42702 51.6356 349.7763 0003001 91.2427 268.8915 15.70885886 28679 PHOENIX 1 42706U 98067LP 17320.48030729 .00023138 00000-0 27287-3 0 9991 2 42706 51.6390 354.4771 0001521 74.7742 285.3420 15.61246793 28598 X-CubeSat 1 42707U 98067LQ 17320.53841391 .00026713 00000-0 31044-3 0 9991 2 42707 051.6378 354.1032 0001616 071.2053 288.9116 15.61539530028599 qbee 1 42708U 98067LR 17320.73882014 .00024617 00000-0 28876-3 0 9991 2 42708 51.6381 353.1922 0001600 76.6831 283.4341 15.61346788 28587 ZA-AeroSat 1 42713U 98067LU 17320.54654966 .00022500 00000-0 27625-3 0 9999 2 42713 051.6389 354.9164 0002858 073.2717 286.8590 15.60207163028259 LINK 1 42714U 98067LV 17320.32194996 .00037380 00000-0 40953-3 0 9999 2 42714 51.6372 354.9017 0003165 63.2285 296.9032 15.62882064 28344 UPSat 1 42716U 98067LX 17320.56972622 .00033876 00000-0 37782-3 0 9999 2 42716 51.6389 353.5695 0002303 151.4256 208.6865 15.62474092 28401 SpaceCube 1 42717U 98067LY 17320.56247725 .00026966 00000-0 31711-3 0 9997 2 42717 51.6387 354.2704 0002538 155.6765 204.4349 15.61224919 27635 Hoopoe 1 42718U 98067LZ 17320.46977592 .00030101 00000-0 34438-3 0 9994 2 42718 51.6388 354.4016 0002464 149.5159 210.5978 15.61877373 27625 Challenger 1 42721U 98067MA 17320.54263257 .00040573 00000-0 42596-3 0 9991 2 42721 051.6374 353.3731 0004807 131.2297 228.9113 15.63926503027345 NJUST-1 1 42722U 98067MB 17320.53658249 .00015824 00000-0 19880-3 0 9991 2 42722 51.6411 355.3481 0005919 143.7455 332.8265 15.59861635 27310 UNSW-EC0 1 42723U 98067MC 17320.50369771 .00032872 00000-0 37663-3 0 9999 2 42723 51.6395 354.6308 0005225 138.2502 221.8891 15.61782177 27301 DUTHsat 1 42724U 98067MD 17320.56405671 .00042877 00000-0 45652-3 0 9999 2 42724 51.6385 353.5275 0004024 131.7175 228.4165 15.63546285 27242 LO-90 1 42725U 98067ME 17320.56419974 .00025454 00000-0 30796-3 0 9996 2 42725 51.6393 355.0336 0004687 143.2841 216.8474 15.60509118 27223 nSIGHT1 1 42726U 98067MF 17320.54066364 .00011986 00000-0 16348-3 0 9998 2 42726 051.6403 356.3823 0005640 151.6233 208.5068 15.57947411027213 QBITO 1 42728U 98067MH 17320.59164704 .00028214 00000-0 33306-3 0 9997 2 42728 051.6405 354.4803 0002212 134.7135 225.4039 15.61099620027041 Aalto-2 1 42729U 98067MJ 17320.41772476 .00029189 00000-0 34378-3 0 9992 2 42729 51.6423 355.3347 0002735 135.9247 332.0844 15.61139580 27029 SUSat 1 42730U 98067MK 17320.54127142 .00025738 00000-0 30774-3 0 9994 2 42730 051.6389 354.8784 0002370 132.8001 227.3192 15.60818918027042 i-INSPIRE II 1 42731U 98067ML 17320.55385051 .00031319 00000-0 35583-3 0 9996 2 42731 051.6378 354.1972 0006833 089.2691 270.9085 15.62015451027094 PolyITAN-2-SAU 1 42732U 98067MM 17320.51864168 .00029148 00000-0 34112-3 0 9998 2 42732 051.6386 354.7152 0006832 090.4270 269.7507 15.61285931027081 SNUSAT-1 1 42733U 98067MN 17320.54155203 .00025569 00000-0 30588-3 0 9991 2 42733 051.6388 354.8716 0006884 093.8045 266.3736 15.60788580027089 ExAlta-1 1 42734U 98067MP 17320.55900461 .00034428 00000-0 39144-3 0 9998 2 42734 51.6380 354.2331 0007344 115.9011 244.2741 15.61942890 27044 Aoxiang-1 1 42735U 98067MQ 17320.57315599 .00022130 00000-0 27379-3 0 9997 2 42735 051.6384 355.0856 0006529 142.2839 217.8613 15.60000970028458 BeEagleSat 1 42736U 98067MR 17320.55895792 .00023905 00000-0 29062-3 0 9996 2 42736 51.6385 354.9895 0006356 139.6836 220.4630 15.60411754 27146 Atlantis 1 42737U 98067MS 17320.31409860 .00078522 00000-0 67508-3 0 9990 2 42737 051.6352 352.5769 0004749 102.8315 257.3213 15.68623956027045 CAS-4B 1 42759U 17034B 17320.69146419 .00000199 00000-0 25944-4 0 9992 2 42759 43.0185 169.6620 0008614 226.5494 245.3556 15.09101236 23341 CAS-4A 1 42761U 17034D 17321.02286199 .00000190 00000-0 25321-4 0 9993 2 42761 43.0175 167.7475 0008782 228.5757 287.2738 15.09176806 23386 UCLSat 1 42765U 17036A 17320.39605241 .00002224 00000-0 10250-3 0 9995 2 42765 097.4321 018.3779 0013656 101.2368 259.0403 15.21235803022949 NIUSat 1 42766U 17036B 17320.78283524 .00001773 00000-0 85466-4 0 9995 2 42766 97.4323 18.4792 0017848 87.4692 272.8586 15.19898221 22266 LituanicaSAT 2 1 42768U 17036D 17320.75753372 .00003949 00000-0 18361-3 0 9993 2 42768 97.4330 18.5115 0017780 90.7797 269.5476 15.20410229 22276 InflateSail 1 42770U 17036F 17245.93730135 .99999999 00000-0 73960-1 0 9995 2 42770 097.4262 306.2162 0014869 278.7167 080.9844 16.07641391010932 Aalto 1 1 42775U 17036L 17320.73707010 .00001533 00000-0 73483-4 0 9991 2 42775 97.4320 18.5363 0016049 88.4391 271.8683 15.20328133 22211 URSA MAIOR 1 42776U 17036M 17320.73296016 .00001619 00000-0 77273-4 0 9997 2 42776 97.4323 18.5471 0015902 88.7141 271.5916 15.20385507 22212 Max Valier Sat 1 42778U 17036P 17320.76043551 .00001818 00000-0 85382-4 0 9997 2 42778 97.4341 18.6931 0014480 93.9163 266.3728 15.20818767 22210 Pegasus 1 42784U 17036V 17320.73826405 .00002033 00000-0 94363-4 0 9997 2 42784 97.4323 18.6894 0014199 100.0399 260.2439 15.21085127 22212 NUDATSat 1 42787U 17036Y 17320.45693954 .00003286 00000-0 14919-3 0 9999 2 42787 097.4330 018.4544 0013826 101.3735 258.9055 15.21411160022013 SUCHAI 1 1 42788U 17036Z 17320.39768457 .00002666 00000-0 12218-3 0 9995 2 42788 97.4328 18.3788 0013863 101.3814 258.8980 15.21257999 22237 SKCUBE 1 42789U 17036AA 17320.39487896 .00002252 00000-0 10366-3 0 9994 2 42789 097.4322 018.3805 0013647 101.1988 259.0783 15.21265171022158 VZLUSAT 1 1 42790U 17036AB 17320.45032368 .00003239 00000-0 14698-3 0 9991 2 42790 097.4326 018.4558 0013372 101.7147 258.5590 15.21449100022165 VENTA 1 1 42791U 17036AC 17320.38552331 .00002046 00000-0 94296-4 0 9999 2 42791 097.4322 018.3919 0013251 101.8241 258.4482 15.21339581022142 Robusta 1B 1 42792U 17036AD 17320.71151276 .00002646 00000-0 12081-3 0 9997 2 42792 97.4323 18.7164 0013239 101.4301 258.8423 15.21399831 22210 D-SAT 1 42794U 17036AF 17320.81009617 .00000411 00000-0 41845-4 0 9990 2 42794 97.6242 18.1257 0125907 268.5966 90.0827 14.90703762 22085 BIRD-J 1 42820U 98067MU 17320.32564318 .00022890 00000-0 28679-3 0 9997 2 42820 051.6387 357.1816 0003732 068.8177 291.3215 15.59659567020576 BIRD-G 1 42821U 98067MV 17320.39728513 .00022608 00000-0 28516-3 0 9991 2 42821 051.6388 356.9100 0003638 072.0569 288.0820 15.59491384020563 BIRD-M 1 42822U 98067MW 17320.58933349 .00024025 00000-0 30190-3 0 9994 2 42822 51.6386 355.9445 0003604 73.7560 286.3829 15.59550453 20579 BIRD-B 1 42823U 98067MX 17320.52718893 .00023271 00000-0 29247-3 0 9997 2 42823 051.6393 356.2830 0006174 100.8634 259.3054 15.59554977020585 BIRD-N 1 42824U 98067MY 17320.53295904 .00023155 00000-0 29205-3 0 9997 2 42824 051.6398 356.3240 0006042 101.3109 258.8563 15.59464976020582 TechnoSat 1 42829U 17042E 17320.59105942 .00000212 00000-0 27075-4 0 9997 2 42829 097.6074 225.7603 0014129 180.3944 179.7266 14.90718370018659 Mayak 1 42830U 17042F 17320.85013177 .00001152 00000-0 12195-3 0 9996 2 42830 97.6081 226.0411 0014168 177.5146 182.6146 14.90949594 18693 OBJECT MZ 1 42910U 98067MZ 17320.54909597 .00018480 00000-0 24604-3 0 9997 2 42910 051.6383 357.1647 0006736 126.5369 233.6245 15.58181382014160 OBJECT NA 1 42911U 98067NA 17320.60965268 .00020264 00000-0 26703-3 0 9997 2 42911 51.6393 356.8360 0006355 119.9128 240.2497 15.58389806 14159 OBJECT NB 1 42912U 98067NB 17320.49358631 .00019958 00000-0 26586-3 0 9992 2 42912 051.6380 357.5300 0005561 132.8200 227.3260 15.58116112014153 OBJECT NC 1 42913U 98067NC 17320.38016872 .00032915 00000-0 40523-3 0 9994 2 42913 051.6383 357.5384 0003917 132.5943 227.5381 15.59910365014141 OBJECT ND 1 42914U 98067ND 17320.56345640 .00018522 00000-0 24891-3 0 9991 2 42914 051.6394 357.2723 0005592 126.2239 233.9270 15.57935872014132 QIKCOM-1 1 42983U 98067NF 17320.57616588 .00004300 00000-0 70845-4 0 9990 2 42983 51.6447 358.5809 0005423 120.1115 10.6846 15.54654152 3127 /EX